RYR45TL GMFF-LFBO

Flight info

Callsign RYR45TL
Flight time N/A
Altitude 36000
Route BOKPA UG850 BERUM DCT GONZA N860 BEGOX DCT LASPO DCT SOPET DCT ASDIR DCT OSLAP DCT USKAR DCT MOPAS N863 GIROM DCT ASPET
Aircraft B738/M-SDE3FGILRWY/SB1

Departure

Time 2026-05-08 08:58
Airport Fes Saïss International Airport (GMFF)

Arrival

Time N/A
Airport Toulouse-Blagnac Airport (LFBO)
Time Latitude Longitude Altitude Speed Heading
2026-05-08 08:35 33.92977 -4.98343 1855 ft 0 kts
2026-05-08 08:49 33.92963 -4.98343 1855 ft 4 kts 356°
2026-05-08 08:49 33.92937 -4.98338 1854 ft 4 kts 339°
2026-05-08 08:49 33.92922 -4.98328 1854 ft 4 kts 314°
2026-05-08 08:49 33.92913 -4.98310 1854 ft 0 kts 270°
2026-05-08 08:52 33.92913 -4.98311 1854 ft 0 kts 270°
2026-05-08 08:52 33.92913 -4.98328 1854 ft 5 kts 270°
2026-05-08 08:52 33.92913 -4.98394 1853 ft 10 kts 270°
2026-05-08 08:52 33.92913 -4.98477 1855 ft 10 kts 269°
2026-05-08 08:53 33.92893 -4.98552 1857 ft 10 kts 232°
2026-05-08 08:53 33.92838 -4.98591 1856 ft 9 kts 188°
2026-05-08 08:53 33.92769 -4.98595 1854 ft 10 kts 197°
2026-05-08 08:53 33.92733 -4.98664 1853 ft 10 kts 264°
2026-05-08 08:54 33.92733 -4.98748 1854 ft 10 kts 271°
2026-05-08 08:54 33.92734 -4.98830 1856 ft 10 kts 269°
2026-05-08 08:54 33.92733 -4.98909 1856 ft 9 kts 271°
2026-05-08 08:54 33.92736 -4.98987 1856 ft 9 kts 270°
2026-05-08 08:55 33.92736 -4.99072 1854 ft 14 kts 270°
2026-05-08 08:55 33.92736 -4.99197 1853 ft 15 kts 270°
2026-05-08 08:55 33.92737 -4.99317 1855 ft 13 kts 271°
2026-05-08 08:55 33.92762 -4.99418 1856 ft 13 kts 299°
2026-05-08 08:56 33.92777 -4.99495 1855 ft 9 kts 231°
2026-05-08 08:56 33.92734 -4.99470 1856 ft 9 kts 94°
2026-05-08 08:56 33.92734 -4.99399 1856 ft 8 kts 91°
2026-05-08 08:56 33.92735 -4.99336 1856 ft 0 kts 91°
2026-05-08 08:57 33.92734 -4.99334 1856 ft 7 kts 91°
2026-05-08 08:57 33.92731 -4.98965 1856 ft 80 kts 90°
2026-05-08 08:57 33.92729 -4.98028 1855 ft 142 kts 90°
2026-05-08 08:57 33.92728 -4.96656 2043 ft 176 kts 91°
2026-05-08 08:58 33.92654 -4.95188 2854 ft 175 kts 93°
2026-05-08 08:58 33.92589 -4.93728 3641 ft 175 kts 92°
2026-05-08 08:58 33.92535 -4.92232 4154 ft 187 kts 93°
2026-05-08 08:58 33.92489 -4.90595 4583 ft 200 kts 93°
2026-05-08 08:59 33.92446 -4.88964 5366 ft 188 kts 92°
2026-05-08 08:59 33.92592 -4.87425 6046 ft 189 kts 74°
2026-05-08 08:59 33.93183 -4.85922 6328 ft 209 kts 52°
2026-05-08 08:59 33.94272 -4.84754 6763 ft 211 kts 26°
2026-05-08 09:00 33.95645 -4.83965 6994 ft 229 kts 24°
2026-05-08 09:00 33.97150 -4.83114 7147 ft 248 kts 24°
2026-05-08 09:00 33.98769 -4.82200 7328 ft 265 kts 24°
2026-05-08 09:00 34.00473 -4.81233 7631 ft 279 kts 24°
2026-05-08 09:01 34.02287 -4.80199 7974 ft 295 kts 24°
2026-05-08 09:01 34.04166 -4.79122 8645 ft 302 kts 24°
2026-05-08 09:01 34.06076 -4.78024 9317 ft 307 kts 24°
2026-05-08 09:01 34.08029 -4.76898 9975 ft 314 kts 24°
2026-05-08 09:02 34.10037 -4.75738 10384 ft 331 kts 24°
2026-05-08 09:02 34.12183 -4.74499 10641 ft 350 kts 24°
2026-05-08 09:02 34.14404 -4.73213 11212 ft 357 kts 24°
2026-05-08 09:02 34.16623 -4.71926 11937 ft 360 kts 24°
2026-05-08 09:03 34.18887 -4.70611 12712 ft 363 kts 23°
2026-05-08 09:03 34.21173 -4.69285 13474 ft 366 kts 23°
2026-05-08 09:03 34.23483 -4.67944 14143 ft 371 kts 23°
2026-05-08 09:03 34.25825 -4.66584 14805 ft 375 kts 22°
2026-05-08 09:04 34.28192 -4.65208 15485 ft 380 kts 22°
2026-05-08 09:04 34.30586 -4.63817 16172 ft 384 kts 22°
2026-05-08 09:04 34.33007 -4.62408 16849 ft 389 kts 22°
2026-05-08 09:04 34.35462 -4.60979 17508 ft 394 kts 22°
2026-05-08 09:05 34.37941 -4.59533 18167 ft 398 kts 22°
2026-05-08 09:05 34.40376 -4.57860 18749 ft 409 kts 31°
2026-05-08 09:05 34.42672 -4.55796 19379 ft 412 kts 34°
2026-05-08 09:05 34.44937 -4.53647 20004 ft 415 kts 35°
2026-05-08 09:06 34.47214 -4.51459 20529 ft 421 kts 35°
2026-05-08 09:06 34.49526 -4.49246 21068 ft 426 kts 35°
2026-05-08 09:06 34.51864 -4.47023 21648 ft 429 kts 34°
2026-05-08 09:06 34.54230 -4.44790 22217 ft 433 kts 34°
2026-05-08 09:07 34.56622 -4.42542 22745 ft 437 kts 34°
2026-05-08 09:07 34.59038 -4.40276 23280 ft 441 kts 34°
2026-05-08 09:07 34.61481 -4.37988 23745 ft 446 kts 34°
2026-05-08 09:07 34.63948 -4.35678 24155 ft 451 kts 34°
2026-05-08 09:08 34.66444 -4.33339 24567 ft 455 kts 34°
2026-05-08 09:08 34.68958 -4.30980 24987 ft 459 kts 33°
2026-05-08 09:08 34.71496 -4.28598 25358 ft 463 kts 33°
2026-05-08 09:08 34.74054 -4.26192 25820 ft 466 kts 33°
2026-05-08 09:09 34.76627 -4.23769 26210 ft 470 kts 33°
2026-05-08 09:09 34.79227 -4.21321 26591 ft 474 kts 33°
2026-05-08 09:09 34.81846 -4.18853 26972 ft 479 kts 33°
2026-05-08 09:09 34.84489 -4.16360 27362 ft 482 kts 33°
2026-05-08 09:10 34.87147 -4.13850 27741 ft 486 kts 32°
2026-05-08 09:10 34.89835 -4.11311 28030 ft 491 kts 32°
2026-05-08 09:10 34.92542 -4.08752 28427 ft 495 kts 32°
2026-05-08 09:10 34.95265 -4.06173 28847 ft 496 kts 32°
2026-05-08 09:11 34.97994 -4.03586 29244 ft 498 kts 32°
2026-05-08 09:11 35.00741 -4.00982 29576 ft 502 kts 32°
2026-05-08 09:11 35.03473 -3.98389 29886 ft 506 kts 32°
2026-05-08 09:11 35.06261 -3.95741 30171 ft 510 kts 32°
2026-05-08 09:12 35.09065 -3.93075 30450 ft 513 kts 32°
2026-05-08 09:12 35.11885 -3.90390 30723 ft 515 kts 32°
2026-05-08 09:12 35.14718 -3.87691 31019 ft 518 kts 32°
2026-05-08 09:12 35.17564 -3.84979 31310 ft 520 kts 32°
2026-05-08 09:13 35.20424 -3.82263 31750 ft 519 kts 32°
2026-05-08 09:13 35.23282 -3.79594 32233 ft 516 kts 31°
2026-05-08 09:13 35.26146 -3.76949 32542 ft 517 kts 31°
2026-05-08 09:13 35.29025 -3.74301 32766 ft 519 kts 31°
2026-05-08 09:14 35.31915 -3.71639 33070 ft 520 kts 31°
2026-05-08 09:14 35.34799 -3.68974 33422 ft 520 kts 31°
2026-05-08 09:14 35.37680 -3.66304 33777 ft 519 kts 31°
2026-05-08 09:14 35.40560 -3.63627 34087 ft 520 kts 31°
2026-05-08 09:15 35.43439 -3.60948 34362 ft 520 kts 32°
2026-05-08 09:15 35.46318 -3.58264 34709 ft 518 kts 32°
2026-05-08 09:15 35.49178 -3.55596 35077 ft 516 kts 32°
2026-05-08 09:15 35.52030 -3.52933 35432 ft 514 kts 32°
2026-05-08 09:16 35.54870 -3.50279 35741 ft 513 kts 32°
2026-05-08 09:16 35.57712 -3.47624 35968 ft 514 kts 32°
2026-05-08 09:16 35.63443 -3.42265 35950 ft 520 kts 33°
2026-05-08 09:17 35.69180 -3.36883 35964 ft 516 kts 33°
2026-05-08 09:17 35.74849 -3.31553 35980 ft 510 kts 33°
2026-05-08 09:18 35.80458 -3.26277 35981 ft 505 kts 33°
2026-05-08 09:18 35.86025 -3.21010 35992 ft 504 kts 33°
2026-05-08 09:19 35.91600 -3.15647 36007 ft 513 kts 34°
2026-05-08 09:19 35.97241 -3.10200 35996 ft 516 kts 34°
2026-05-08 09:20 36.02901 -3.04735 35955 ft 517 kts 34°
2026-05-08 09:20 36.08566 -2.99261 35991 ft 517 kts 34°
2026-05-08 09:21 36.14230 -2.93780 36000 ft 517 kts 34°
2026-05-08 09:23 36.34094 -2.74694 35996 ft 515 kts 34°
2026-05-08 09:23 36.39756 -2.69267 35994 ft 513 kts 34°
2026-05-08 09:24 36.45386 -2.63855 35994 ft 511 kts 34°
2026-05-08 09:24 36.50969 -2.58401 36016 ft 510 kts 35°
2026-05-08 09:25 36.56490 -2.52854 36003 ft 511 kts 36°
2026-05-08 09:25 36.62013 -2.47297 36005 ft 510 kts 36°
2026-05-08 09:26 36.67543 -2.41749 36003 ft 510 kts 36°
2026-05-08 09:26 36.73074 -2.36197 36027 ft 510 kts 36°
2026-05-08 09:27 36.78598 -2.30639 35997 ft 510 kts 36°
2026-05-08 09:27 36.84187 -2.25223 35981 ft 505 kts 27°
2026-05-08 09:28 36.90317 -2.21065 36000 ft 501 kts 22°
2026-05-08 09:28 36.96517 -2.17096 36002 ft 501 kts 22°
2026-05-08 09:29 37.02697 -2.13048 36000 ft 502 kts 23°
2026-05-08 09:29 37.08860 -2.08945 36012 ft 502 kts 23°
2026-05-08 09:30 37.15022 -2.04830 36006 ft 502 kts 23°
2026-05-08 09:30 37.21196 -2.00708 36017 ft 503 kts 23°
2026-05-08 09:31 37.27340 -1.96633 36036 ft 503 kts 23°
2026-05-08 09:31 37.33572 -1.92656 36026 ft 502 kts 22°
2026-05-08 09:32 37.39818 -1.88693 36006 ft 502 kts 22°
2026-05-08 09:32 37.46046 -1.84714 36010 ft 502 kts 22°
2026-05-08 09:33 37.52269 -1.80718 36019 ft 502 kts 23°
2026-05-08 09:33 37.58486 -1.76715 36010 ft 501 kts 23°
2026-05-08 09:34 37.64693 -1.72712 36013 ft 500 kts 23°
2026-05-08 09:34 37.70884 -1.68713 36050 ft 500 kts 23°
2026-05-08 09:35 37.77083 -1.64702 36023 ft 500 kts 24°
2026-05-08 09:35 37.83271 -1.60690 36020 ft 500 kts 24°
2026-05-08 09:36 37.89452 -1.56675 36017 ft 499 kts 24°
2026-05-08 09:36 37.94574 -1.53316 36045 ft 498 kts 24°
2026-05-08 09:37 38.00701 -1.49223 36007 ft 497 kts 25°
2026-05-08 09:37 38.06817 -1.45124 36014 ft 497 kts 24°
2026-05-08 09:38 38.12926 -1.41033 36018 ft 496 kts 24°
2026-05-08 09:38 38.19033 -1.36953 36049 ft 495 kts 25°
2026-05-08 09:39 38.25138 -1.32850 36024 ft 496 kts 25°
2026-05-08 09:39 38.31242 -1.28740 36011 ft 497 kts 25°
2026-05-08 09:40 38.37353 -1.24622 36010 ft 497 kts 25°
2026-05-08 09:40 38.43462 -1.20498 36013 ft 497 kts 25°
2026-05-08 09:41 38.49571 -1.16366 36006 ft 497 kts 25°
2026-05-08 09:41 38.55673 -1.12230 36000 ft 496 kts 25°
2026-05-08 09:42 38.61767 -1.08092 36006 ft 496 kts 25°
2026-05-08 09:42 38.67864 -1.03945 36016 ft 496 kts 25°
2026-05-08 09:43 38.73960 -0.99790 36009 ft 497 kts 25°
2026-05-08 09:43 38.80059 -0.95623 36007 ft 497 kts 25°
2026-05-08 09:44 38.86158 -0.91450 36000 ft 497 kts 25°
2026-05-08 09:44 38.92254 -0.87271 35996 ft 497 kts 26°
2026-05-08 09:45 38.98356 -0.83080 36003 ft 497 kts 26°
2026-05-08 09:45 39.04457 -0.78883 35995 ft 497 kts 26°
2026-05-08 09:46 39.10203 -0.73939 36002 ft 498 kts 39°
2026-05-08 09:46 39.15492 -0.68159 35995 ft 498 kts 40°
2026-05-08 09:47 39.20789 -0.62412 35978 ft 498 kts 39°
2026-05-08 09:47 39.26125 -0.56721 35979 ft 497 kts 39°
2026-05-08 09:48 39.31503 -0.51115 35977 ft 497 kts 36°
2026-05-08 09:48 39.37043 -0.45793 36013 ft 496 kts 36°
2026-05-08 09:49 39.42551 -0.40536 36020 ft 495 kts 36°
2026-05-08 09:49 39.48097 -0.35165 36016 ft 494 kts 36°
2026-05-08 09:50 39.53542 -0.29846 36018 ft 493 kts 36°
2026-05-08 09:50 39.59014 -0.24488 36019 ft 492 kts 37°
2026-05-08 09:51 39.64474 -0.19134 36009 ft 492 kts 37°
2026-05-08 09:51 39.69925 -0.13780 36002 ft 491 kts 37°
2026-05-08 09:52 39.75367 -0.08424 35997 ft 490 kts 37°
2026-05-08 09:52 39.80799 -0.03068 36005 ft 490 kts 37°
2026-05-08 09:53 39.86395 0.01960 36008 ft 487 kts 28°
2026-05-08 09:53 39.92311 0.06250 36006 ft 487 kts 27°
2026-05-08 09:54 39.98247 0.10491 35999 ft 486 kts 27°
2026-05-08 09:54 40.04147 0.14818 36021 ft 486 kts 28°
2026-05-08 09:55 40.10026 0.19187 36033 ft 486 kts 28°
2026-05-08 09:55 40.15895 0.23557 36044 ft 485 kts 28°
2026-05-08 09:56 40.21752 0.27921 36049 ft 485 kts 28°
2026-05-08 09:56 40.27610 0.32292 36045 ft 484 kts 28°
2026-05-08 09:57 40.36826 0.37430 36043 ft 479 kts 13°
2026-05-08 09:57 40.43245 0.39769 36021 ft 479 kts 12°
2026-05-08 09:58 40.49616 0.42118 36028 ft 479 kts 13°
2026-05-08 09:58 40.56030 0.44549 36022 ft 480 kts 13°
2026-05-08 09:59 40.62446 0.47010 36021 ft 481 kts 13°
2026-05-08 09:59 40.68872 0.49480 36018 ft 481 kts 13°
2026-05-08 10:00 40.75301 0.51953 36028 ft 481 kts 13°
2026-05-08 10:00 40.81734 0.54431 36033 ft 482 kts 13°
2026-05-08 10:01 40.88181 0.56920 36022 ft 483 kts 13°
2026-05-08 10:01 40.94628 0.59413 36035 ft 483 kts 14°
2026-05-08 10:02 41.01064 0.61908 36019 ft 482 kts 14°
2026-05-08 10:02 41.07482 0.64400 36022 ft 480 kts 14°
2026-05-08 10:03 41.13882 0.66890 36025 ft 479 kts 14°
2026-05-08 10:03 41.20269 0.69380 36018 ft 478 kts 14°
2026-05-08 10:04 41.26642 0.71865 36020 ft 477 kts 14°
2026-05-08 10:04 41.33005 0.74352 36018 ft 477 kts 14°
2026-05-08 10:05 41.39325 0.76825 35996 ft 476 kts 14°
2026-05-08 10:05 41.45636 0.79302 35637 ft 470 kts 14°
2026-05-08 10:06 41.48746 0.80525 35317 ft 463 kts 14°
2026-05-08 10:06 41.51827 0.81737 34937 ft 460 kts 14°
2026-05-08 10:06 41.54886 0.82941 34575 ft 457 kts 14°
2026-05-08 10:06 41.57924 0.84138 34198 ft 454 kts 14°
2026-05-08 10:07 41.60950 0.85331 33803 ft 452 kts 14°
2026-05-08 10:07 41.63959 0.86519 33379 ft 450 kts 14°
2026-05-08 10:07 41.66949 0.87700 32988 ft 447 kts 14°
2026-05-08 10:07 41.69919 0.88875 32609 ft 443 kts 14°
2026-05-08 10:08 41.72866 0.90042 32237 ft 440 kts 14°
2026-05-08 10:08 41.75793 0.91203 31871 ft 438 kts 14°
2026-05-08 10:08 41.78702 0.92357 31523 ft 435 kts 14°
2026-05-08 10:08 41.81592 0.93504 31158 ft 432 kts 14°
2026-05-08 10:09 41.84465 0.94646 30772 ft 429 kts 14°
2026-05-08 10:09 41.87324 0.95783 30421 ft 427 kts 14°
2026-05-08 10:09 41.90163 0.96914 30048 ft 424 kts 14°
2026-05-08 10:09 41.92981 0.98037 29650 ft 421 kts 14°
2026-05-08 10:10 41.95783 0.99154 29240 ft 418 kts 14°
2026-05-08 10:10 41.98560 1.00262 28858 ft 415 kts 14°
2026-05-08 10:10 42.01314 1.01362 28498 ft 411 kts 14°
2026-05-08 10:10 42.04044 1.02453 28113 ft 408 kts 14°
2026-05-08 10:11 42.06750 1.03535 27735 ft 404 kts 14°
2026-05-08 10:11 42.09439 1.04612 27387 ft 401 kts 14°
2026-05-08 10:11 42.12099 1.05673 27034 ft 398 kts 13°
2026-05-08 10:11 42.14800 1.06350 26667 ft 392 kts
2026-05-08 10:12 42.17504 1.06389 26327 ft 387 kts 353°
2026-05-08 10:12 42.20176 1.06093 26002 ft 384 kts 352°
2026-05-08 10:12 42.22826 1.05763 25648 ft 382 kts 352°
2026-05-08 10:12 42.25469 1.05435 25297 ft 380 kts 352°
2026-05-08 10:13 42.28096 1.05122 24949 ft 378 kts 352°
2026-05-08 10:13 42.30713 1.04822 24603 ft 377 kts 353°
2026-05-08 10:13 42.33324 1.04529 24242 ft 376 kts 353°
2026-05-08 10:13 42.35929 1.04240 23891 ft 375 kts 353°
2026-05-08 10:14 42.38521 1.03953 23526 ft 373 kts 353°
2026-05-08 10:14 42.41065 1.03673 23157 ft 371 kts 353°
2026-05-08 10:14 42.43626 1.03392 22766 ft 368 kts 353°
2026-05-08 10:14 42.46171 1.03115 22399 ft 365 kts 353°
2026-05-08 10:15 42.48694 1.02843 22066 ft 362 kts 353°
2026-05-08 10:15 42.51202 1.02573 21710 ft 360 kts 353°
2026-05-08 10:15 42.53690 1.02305 21357 ft 358 kts 353°
2026-05-08 10:15 42.56162 1.02036 21024 ft 355 kts 353°
2026-05-08 10:16 42.58616 1.01769 20695 ft 352 kts 354°